Location: Newark
(9.4667°S, 159.8167°E)
Time: 08:07:44
(UTC+00:00)

Courier 1B Rocket - Pass Details

Date: 28 November 2019
Orbit: 920 x 1202 km, 28.2° (Epoch: 11 December)

Event Time Altitude Azimuth Distance (km) Brightness Sun altitude
Rises 15:36:09 0° 232° (SW) 4,017 - -42.5°
Reaches altitude 10° 15:40:03 10° 214° (SW) 3,008 - -41.7°
Exits shadow 15:42:34 16° 196° (SSW) 2,543 7.3 -41.3°
Maximum altitude 15:44:59 19° 172° (S) 2,354 7.3 -40.8°
Drops below altitude 10° 15:49:43 10° 129° (SE) 2,864 8.1 -39.9°
Sets 15:53:17 0° 111° (ESE) 3,759 8.9 -39.2°
